User: anonymous
Location: Caltech
(34.1382°N, 118.1253°W)
Time: 13:08:10
(UTC-07:00)
Language:

SO-67 - Orbit

View from above orbital plane
View from above orbital plane
View from above satellite
View from above satellite

Ground track
Ground track

The orbit data is extracted from the following two-line orbital elements,

1 35870U 09049F   14241.35136242  .00006676  00000-0  20570-3 0  4574
2 35870 097.1588 260.3345 0002446 141.9414 343.0941 15.33929855275262
Epoch (UTC): 29 August 2014 08:25:57
Eccentricity: 0.0002446
inclination: 97.1588°
perigee height: 462 km
apogee height: 466 km
right ascension of ascending node: 260.3345°
argument of perigee: 141.9414°
revolutions per day: 15.33929855
mean anomaly at epoch: 343.0941°
orbit number at epoch: 27526

The dashed part of the orbit path shows where the satellite is in the earth's shadow,  

DLR